| time (UTC) | temp F | wind direction | speed MPH | gust MPH | rain 1hr in | rain 24hr in | rain mn in | humidity % | barometer mb |
| 20260506110052 | 30 | 279 | 0.0 | 0.0 | 0.00 | 0.00 | 0.00 | 79 | 1017.8 |
| 20260506104548 | 30 | 302 | 0.0 | 0.0 | 0.00 | 0.00 | 0.00 | 78 | 1017.6 |
| 20260506103047 | 31 | 309 | 0.0 | 0.0 | 0.00 | 0.00 | 0.00 | 78 | 1017.6 |
| 20260506101549 | 31 | 317 | 0.0 | 0.0 | 0.00 | 0.00 | 0.00 | 78 | 1017.7 |
| 20260506100052 | 32 | 323 | 0.0 | 0.0 | 0.00 | 0.00 | 0.00 | 76 | 1017.7 |
| 20260506094532 | 33 | 328 | 0.0 | 0.0 | 0.00 | 0.00 | 0.00 | 75 | 1017.6 |
| 20260506093039 | 33 | 335 | 0.0 | 0.0 | 0.00 | 0.00 | 0.00 | 75 | 1017.6 |
| 20260506091534 | 33 | 305 | 0.0 | 0.0 | 0.00 | 0.00 | 0.00 | 76 | 1017.6 |
| 20260506090028 | 33 | 327 | 0.0 | 0.0 | 0.00 | 0.00 | 0.00 | 73 | 1017.6 |
| 20260506084527 | 33 | 325 | 0.0 | 0.0 | 0.00 | 0.00 | 0.00 | 74 | 1017.5 |
| 20260506083025 | 33 | 335 | 0.0 | 0.0 | 0.00 | 0.00 | 0.00 | 74 | 1017.4 |
| 20260506081532 | 34 | 311 | 0.0 | 0.0 | 0.00 | 0.00 | 0.00 | 72 | 1017.5 |
| 20260506073034 | 34 | 333 | 0.0 | 0.0 | 0.00 | 0.00 | 0.00 | 70 | 1017.4 |
| 20260506071519 | 34 | 34 | 0.0 | 0.0 | 0.00 | 0.00 | 0.00 | 71 | 1017.4 |
| 20260506061512 | 34 | 348 | 0.0 | 0.0 | 0.00 | 0.00 | 0.00 | 71 | 1017.7 |
| 20260506044655 | 35 | 22 | 0.0 | 0.0 | 0.00 | 0.00 | 0.00 | 68 | 1017.4 |
| 20260506043051 | 35 | 10 | 0.0 | 0.0 | 0.00 | 0.00 | 0.00 | 69 | 1017.5 |
| 20260506041600 | 35 | 20 | 0.0 | 0.0 | 0.00 | 0.00 | 0.00 | 69 | 1017.4 |
| 20260506040048 | 35 | 30 | 0.0 | 0.0 | 0.00 | 0.00 | 0.00 | 69 | 1017.4 |
| 20260506034621 | 36 | 7 | 0.0 | 0.0 | 0.00 | 0.00 | 0.00 | 68 | 1017.4 |
| 20260506033049 | 36 | 37 | 0.0 | 0.0 | 0.00 | 0.00 | 0.00 | 68 | 1017.3 |
| 20260506031545 | 36 | 358 | 0.0 | 0.0 | 0.00 | 0.00 | 0.00 | 67 | 1017.2 |
| 20260506030043 | 36 | 30 | 0.0 | 0.0 | 0.00 | 0.00 | 0.00 | 68 | 1017.1 |
| 20260506024542 | 36 | 15 | 0.0 | 0.0 | 0.00 | 0.00 | 0.00 | 68 | 1016.9 |
| 20260506023100 | 36 | 48 | 0.0 | 0.0 | 0.00 | 0.00 | 0.00 | 67 | 1016.8 |
| 20260506021537 | 36 | 27 | 0.0 | 0.0 | 0.00 | 0.00 | 0.00 | 67 | 1016.5 |
| 20260506020036 | 37 | 37 | 0.0 | 0.0 | 0.00 | 0.00 | 0.00 | 66 | 1016.3 |
| 20260506014533 | 37 | 37 | 0.0 | 0.0 | 0.00 | 0.00 | 0.00 | 65 | 1016.0 |
| 20260506013031 | 38 | 2 | 0.0 | 0.0 | 0.00 | 0.00 | 0.00 | 65 | 1015.9 |
| 20260506011531 | 38 | 349 | 0.0 | 0.0 | 0.00 | 0.00 | 0.00 | 65 | 1015.8 |
| 20260506010030 | 38 | 2 | 0.0 | 0.0 | 0.00 | 0.00 | 0.00 | 64 | 1015.8 |
| 20260506004536 | 38 | 353 | 0.0 | 0.0 | 0.00 | 0.00 | 0.00 | 63 | 1015.7 |
| 20260506003038 | 38 | 356 | 0.0 | 0.0 | 0.00 | 0.00 | 0.00 | 63 | 1015.7 |
| 20260506001525 | 38 | 337 | 0.0 | 11.0 | 0.00 | 0.00 | 0.00 | 62 | 1015.7 |
| 20260506000026 | 39 | 10 | 0.0 | 10.0 | 0.00 | 0.00 | 0.00 | 62 | 1015.6 |
| 20260505234533 | 39 | 345 | 0.0 | 13.0 | 0.00 | 0.00 | 0.00 | 61 | 1015.5 |
| 20260505233021 | 39 | 20 | 0.0 | 8.0 | 0.00 | 0.00 | 0.00 | 61 | 1015.5 |
| 20260505231521 | 39 | 20 | 0.0 | 10.0 | 0.00 | 0.00 | 0.00 | 61 | 1015.5 |
| 20260505230019 | 39 | 360 | 0.0 | 11.0 | 0.00 | 0.00 | 0.00 | 60 | 1015.4 |
| 20260505224519 | 39 | 335 | 0.0 | 11.0 | 0.00 | 0.00 | 0.00 | 60 | 1015.4 |
| 20260505223017 | 39 | 319 | 6.0 | 13.0 | 0.00 | 0.00 | 0.00 | 60 | 1015.3 |
| 20260505221519 | 40 | 309 | 6.0 | 15.0 | 0.00 | 0.00 | 0.00 | 60 | 1015.2 |
| 20260505220023 | 40 | 25 | 8.0 | 14.0 | 0.00 | 0.00 | 0.00 | 60 | 1015.3 |
| 20260505214521 | 39 | 351 | 4.0 | 12.0 | 0.00 | 0.01 | 0.00 | 61 | 1015.0 |
| 20260505213012 | 40 | 345 | 6.0 | 11.0 | 0.00 | 0.01 | 0.00 | 60 | 1015.1 |
| 20260505211512 | 40 | 320 | 1.0 | 10.0 | 0.00 | 0.01 | 0.00 | 59 | 1015.1 |
| 20260505210011 | 40 | 340 | 6.0 | 11.0 | 0.00 | 0.01 | 0.00 | 59 | 1015.1 |
| 20260505204509 | 40 | 309 | 2.0 | 11.0 | 0.00 | 0.01 | 0.00 | 59 | 1015.0 |
| 20260505203009 | 40 | 3 | 0.0 | 15.0 | 0.00 | 0.01 | 0.00 | 59 | 1015.1 |
| 20260505201509 | 40 | 321 | 2.0 | 12.0 | 0.00 | 0.01 | 0.00 | 60 | 1015.0 |
| 20260505200003 | 40 | 339 | 0.0 | 17.0 | 0.00 | 0.01 | 0.00 | 59 | 1014.9 |
| 20260505194507 | 39 | 335 | 1.0 | 13.0 | 0.00 | 0.01 | 0.00 | 59 | 1014.9 |
| 20260505193007 | 39 | 342 | 4.0 | 13.0 | 0.00 | 0.01 | 0.00 | 59 | 1014.9 |
| 20260505191502 | 40 | 360 | 3.0 | 14.0 | 0.00 | 0.01 | 0.00 | 60 | 1014.8 |
| 20260505184603 | 40 | 1 | 9.0 | 17.0 | 0.00 | 0.01 | 0.00 | 60 | 1014.6 |
| 20260505183057 | 40 | 41 | 3.0 | 15.0 | 0.00 | 0.01 | 0.00 | 60 | 1014.4 |
| 20260505181558 | 40 | 292 | 0.0 | 13.0 | 0.00 | 0.01 | 0.00 | 61 | 1014.4 |
| 20260505180058 | 39 | 345 | 7.0 | 16.0 | 0.00 | 0.01 | 0.00 | 62 | 1014.4 |
| 20260505174607 | 38 | 7 | 0.0 | 14.0 | 0.00 | 0.01 | 0.00 | 63 | 1014.5 |
| 20260505173047 | 37 | 358 | 8.0 | 16.0 | 0.00 | 0.01 | 0.00 | 63 | 1014.5 |
| 20260505171542 | 37 | 34 | 8.0 | 15.0 | 0.00 | 0.01 | 0.00 | 67 | 1014.4 |
| 20260505170057 | 36 | 10 | 0.0 | 15.0 | 0.00 | 0.01 | 0.00 | 66 | 1014.4 |
| 20260505164541 | 36 | 345 | 0.0 | 11.0 | 0.00 | 0.01 | 0.00 | 67 | 1014.2 |
| 20260505163040 | 36 | 323 | 7.0 | 14.0 | 0.00 | 0.01 | 0.00 | 70 | 1014.1 |
| 20260505161536 | 35 | 353 | 4.0 | 11.0 | 0.00 | 0.01 | 0.00 | 68 | 1014.2 |
| 20260505153035 | 34 | 344 | 0.0 | 0.0 | 0.00 | 0.01 | 0.00 | 75 | 1013.9 |
| 20260505151530 | 33 | 18 | 4.0 | 11.0 | 0.00 | 0.01 | 0.00 | 76 | 1013.8 |
| 20260505124511 | 32 | 329 | 0.0 | 0.0 | 0.00 | 0.01 | 0.00 | 81 | 1012.3 |
| 20260505123007 | 31 | 3 | 2.0 | 14.0 | 0.00 | 0.01 | 0.00 | 80 | 1012.0 |
| 20260505121502 | 32 | 6 | 0.0 | 0.0 | 0.00 | 0.01 | 0.00 | 84 | 1011.9 |
| 20260505120059 | 31 | 314 | 0.0 | 0.0 | 0.00 | 0.01 | 0.00 | 86 | 1011.7 |
| 20260505114614 | 31 | 339 | 0.0 | 0.0 | 0.00 | 0.01 | 0.00 | 86 | 1011.5 |
| 20260505113055 | 31 | 328 | 0.0 | 0.0 | 0.00 | 0.01 | 0.00 | 86 | 1011.4 |
| 20260505111605 | 31 | 328 | 0.0 | 0.0 | 0.00 | 0.01 | 0.00 | 85 | 1011.3 |